TimeHST,TemperatureF,Dew PointF,Humidity,Sea Level PressureIn,VisibilityMPH,Wind Direction,Wind SpeedMPH,Gust SpeedMPH,PrecipitationIn,Events,Conditions,WindDirDegrees,DateUTC
12:56 AM,68.9,65.8,90,30.03,10.0,Calm,Calm,-,N/A,,Clear,0,2013-10-08 10:56:00
1:56 AM,68.9,65.8,90,30.01,10.0,NNE,5.8,-,N/A,,Clear,20,2013-10-08 11:56:00
2:56 AM,70.0,68.0,93,30.01,10.0,NNE,6.9,-,N/A,,Clear,20,2013-10-08 12:56:00
3:56 AM,68.0,66.9,96,30.01,10.0,ESE,5.8,-,N/A,,Clear,110,2013-10-08 13:56:00
4:56 AM,66.9,64.9,93,30.02,10.0,ENE,5.8,-,N/A,,Clear,70,2013-10-08 14:56:00
5:56 AM,66.9,64.9,93,30.04,10.0,NE,4.6,-,N/A,,Partly Cloudy,50,2013-10-08 15:56:00
6:56 AM,68.9,65.8,90,30.04,10.0,NNE,8.1,-,N/A,,Clear,30,2013-10-08 16:56:00
7:56 AM,74.8,66.9,76,30.05,10.0,NE,8.1,-,N/A,,Clear,40,2013-10-08 17:56:00
8:56 AM,79.0,64.9,62,30.06,10.0,NE,10.4,-,N/A,,Clear,50,2013-10-08 18:56:00
9:56 AM,77.9,65.8,66,30.06,10.0,NE,8.1,-,N/A,,Mostly Cloudy,50,2013-10-08 19:56:00
10:14 AM,80.6,66.2,61,30.13,10.0,South,8.1,-,N/A,,Mostly Cloudy,180,2013-10-08 20:14:00
10:43 AM,80.6,66.2,61,30.12,10.0,SSE,8.1,-,N/A,,Scattered Clouds,150,2013-10-08 20:43:00
10:56 AM,79.9,64.9,60,30.05,10.0,Variable,6.9,-,N/A,,Mostly Cloudy,0,2013-10-08 20:56:00
11:28 AM,78.8,66.2,65,30.10,10.0,NNE,8.1,-,N/A,,Overcast,30,2013-10-08 21:28:00
11:56 AM,83.8,65.8,55,30.03,10.0,NE,16.1,20.7,N/A,,Scattered Clouds,40,2013-10-08 21:56:00
12:56 PM,79.9,64.9,60,30.01,10.0,NE,15.0,-,N/A,,Mostly Cloudy,40,2013-10-08 22:56:00
1:56 PM,78.8,66.2,65,30.05,10.0,ENE,15.0,-,N/A,,Overcast,60,2013-10-08 23:56:00
2:06 PM,78.8,66.2,65,30.06,10.0,ENE,12.7,-,0.00,Rain,Light Rain,60,2013-10-09 00:06:00
2:56 PM,77.0,65.8,68,29.99,10.0,NE,18.4,26.5,0.00,,Overcast,50,2013-10-09 00:56:00
3:15 PM,75.2,64.4,69,30.05,10.0,NE,19.6,24.2,N/A,,Mostly Cloudy,50,2013-10-09 01:15:00
3:56 PM,81.0,64.9,58,29.99,10.0,Variable,4.6,-,N/A,,Mostly Cloudy,0,2013-10-09 01:56:00
4:16 PM,78.8,64.4,61,30.04,10.0,NE,11.5,20.7,N/A,,Mostly Cloudy,40,2013-10-09 02:16:00
4:56 PM,72.9,65.8,79,30.01,10.0,NE,15.0,-,0.00,Rain,Light Rain,50,2013-10-09 02:56:00
5:14 PM,73.4,64.4,73,30.06,10.0,ENE,12.7,-,0.00,,Overcast,60,2013-10-09 03:14:00
5:56 PM,73.9,65.8,76,30.01,10.0,SSE,3.5,-,0.00,,Mostly Cloudy,150,2013-10-09 03:56:00
6:31 PM,71.6,64.4,78,30.08,10.0,ENE,8.1,-,N/A,,Scattered Clouds,70,2013-10-09 04:31:00
6:56 PM,70.9,63.0,76,30.04,10.0,East,8.1,-,N/A,,Partly Cloudy,80,2013-10-09 04:56:00
7:56 PM,70.9,63.0,76,30.04,10.0,East,5.8,-,N/A,,Clear,90,2013-10-09 05:56:00
8:56 PM,70.9,64.9,81,30.05,10.0,NNE,4.6,-,N/A,,Clear,30,2013-10-09 06:56:00
9:56 PM,70.9,64.9,81,30.05,10.0,NE,8.1,-,N/A,,Clear,40,2013-10-09 07:56:00
10:56 PM,70.9,64.9,81,30.03,10.0,ENE,11.5,-,N/A,,Clear,60,2013-10-09 08:56:00
11:56 PM,68.9,63.9,84,30.01,10.0,ENE,5.8,-,N/A,,Scattered Clouds,70,2013-10-09 09:56:00